Regional Weather Roundup
Issued by NWS

Home | Current Version | Previous Version | Text Only | Print | Product List | Glossary Off
Versions: 1 2 3 4 5 6 7 8 9 10 11 12 13 14 15 16 17 18 19 20 21 22 23 24 25 26 27 28

000
ASUS45 KCYS 151710
RWRWY

WYOMING REGIONAL WEATHER ROUNDUP
NATIONAL WEATHER SERVICE CHEYENNE WY
1100 AM MDT TUE APR 15 2014

NOTE:  "FAIR" INDICATES FEW OR NO CLOUDS BELOW 12,000 FEET
WITH NO SIGNIFICANT WEATHER AND/OR OBSTRUCTIONS TO VISIBILITY.

WYZ001-151800-
YELLOWSTONE NATIONAL PARK

CITY           SKY/WX    TMP DP  RH WIND       PRES   REMARKS
LK YELLOWSTONE   N/A     36  12  37 VRB5      29.88F WCI  32
W YELLOWSTONE  NOT AVBL

$$
WYZ002>013-054>058-071-098>099-151800-
NORTHERN WYOMING

CITY           SKY/WX    TMP DP  RH WIND       PRES   REMARKS
JACKSON        PTSUNNY   45  14  29 MISG      29.89F
CODY           PTSUNNY   54  18  24 SW6       29.75F
GREYBULL       PTSUNNY   44  27  51 S6        29.79F
WORLAND        PTSUNNY   44  28  53 S5        29.80F
SHERIDAN       PTSUNNY   57  29  34 W13       29.70F
BUFFALO        CLOUDY    54  16  22 E5        29.75F
GILLETTE       MOSUNNY   57  21  24 SW13      29.73F
HULETT         FAIR      52  23  32 SW14      29.74
NEWCASTLE      FAIR      41  21  45 S7        29.80

$$
WYZ014>020-022>026-101>103-151800-
CENTRAL WYOMING

CITY           SKY/WX    TMP DP  RH WIND       PRES   REMARKS
BIG PINEY      SUNNY     42  14  32 S6        29.95F
PINEDALE       SUNNY     37  18  44 CALM      29.96F
DUBOIS         FAIR      45   5  19 W30G40    29.83F
LANDER         MOSUNNY   48  22  35 S3        29.84F
RIVERTON       MOSUNNY   50  15  24 SW8       29.84F
CASPER         CLOUDY    43  21  41 SW24G32   29.84F
DOUGLAS        CLOUDY    45  25  45 W12       29.83F

$$
WYZ021-027>030-104>119-151800-
SOUTHERN WYOMING

CITY           SKY/WX    TMP DP  RH WIND       PRES   REMARKS
EVANSTON       MOSUNNY   49  13  23 SW16G23   30.00F
KEMMERER       SUNNY     46  10  23 W25G32    29.97F
FORT BRIDGER   FAIR      53  10  18 W28G35    30.00F
ROCK SPRINGS   MOSUNNY   50   6  16 W23G29    29.96F
DIXON          FAIR      42  18  37 SW14G24   30.07F
RAWLINS        CLOUDY    41  15  35 SW18G29   29.98F
SARATOGA       CLOUDY    41  18  38 SW7       30.00F
LARAMIE        PTSUNNY   42  20  41 SW21G28   29.94S
CHEYENNE       CLOUDY    45  21  38 W28G38    29.90S
TORRINGTON     CLOUDY    48  26  42 W15G21    29.85F
PINE BLUFFS    FAIR      52  19  28 W15G23    29.90F

$$



USA.gov is the U.S. government's official web portal to all federal, state and local government web resources and services.